Weather History for Kirksville, MO

Change the Weather History Date:

Friday, March 29, 2013

  Actual Average Record
Temperature  
Mean Temperature 47 °F 46 °F  
Max Temperature 62 °F 57 °F 85 °F (1986)
Min Temperature 31 °F 35 °F 13 °F (1969)
Degree Days  
Heating Degree Days 18 19  
Month to date heating degree days 945 716  
Since 1 July heating degree days 5325 5249  
Cooling Degree Days 0 0  
Month to date cooling degree days 0 0  
Year to date cooling degree days 0 0  
Moisture  
Dew Point 33 °F    
Average Humidity 61    
Maximum Humidity 85    
Minimum Humidity 36    
Precipitation  
Precipitation 0.00 in 0.09 in 1.74 in (2007)
Month to date precipitation 3.20 2.40  
Year to date precipitation 8.65 5.20  
Sea Level Pressure  
Sea Level Pressure 30.24 in    
Wind  
Wind Speed 7 mph (East)    
Max Wind Speed 13 mph    
Max Gust Speed 16 mph    
Visibility 10 miles    
Events      
T = Trace of Precipitation, MM = Missing Value Source: NWS Daily Summary

Daily Weather History Graph

Daily Weather History Graph

Search for Another Location

Airport:

Trip Planner

Search our weather history database for the weather conditions in past years. The results will help you decide how hot, cold, wet, or windy it might be!

Date:

Astronomy

Mar. 29, 2013 Rise Set
Actual Time 6:58 AM CDT 7:31 PM CDT
Civil Twilight 6:31 AM CDT 7:59 PM CDT
Nautical Twilight 5:59 AM CDT 8:31 PM CDT
Astronomical Twilight 5:26 AM CDT 9:04 PM CDT
Moon 10:32 PM CDT (3/29) 8:07 AM CDT (3/29)
Length of Visible Light 13h 27m
Length of Day
12h 33m
Waning Gibbous, 93% of the Moon is Illuminated
Mar 29
Waning Gibbous
Apr 2
Last Quarter
Apr 10
New
Apr 18
First Quarter
Apr 25
Full

Hourly Weather History & Observations

Time (CDT) Temp. Windchill Dew Point Humidity Pressure Visibility Wind Dir Wind Speed Gust Speed Precip Events Conditions
12:55 AM 37.9 °F 32.7 °F 33.1 °F 83% 30.28 in 10.0 mi NE 6.9 mph - N/A   Scattered Clouds
1:55 AM 37.0 °F 31.0 °F 30.9 °F 79% 30.26 in 10.0 mi ENE 8.1 mph - N/A   Clear
2:55 AM 35.1 °F 30.1 °F 28.9 °F 78% 30.25 in 9.0 mi ENE 5.8 mph - N/A   Clear
3:55 AM 33.1 °F 27.7 °F 28.9 °F 85% 30.25 in 8.0 mi ENE 5.8 mph - N/A   Clear
4:55 AM 32.0 °F 25.6 °F 28.0 °F 85% 30.24 in 8.0 mi ENE 6.9 mph - N/A   Clear
5:55 AM 33.1 °F 27.7 °F 27.0 °F 78% 30.25 in 10.0 mi ENE 5.8 mph - N/A   Clear
6:55 AM 32.0 °F 25.6 °F 27.0 °F 82% 30.26 in 10.0 mi ENE 6.9 mph - N/A   Clear
7:55 AM 34.0 °F 29.8 °F 28.9 °F 82% 30.27 in 8.0 mi ENE 4.6 mph - N/A   Clear
8:55 AM 39.0 °F 34.0 °F 32.0 °F 76% 30.29 in 9.0 mi ENE 6.9 mph - N/A   Clear
9:55 AM 44.1 °F 41.5 °F 34.0 °F 68% 30.29 in 9.0 mi East 4.6 mph - N/A   Clear
10:55 AM 51.1 °F - 37.9 °F 61% 30.28 in 10.0 mi Variable 4.6 mph - N/A   Clear
11:55 AM 54.0 °F - 37.9 °F 55% 30.28 in 10.0 mi East 6.9 mph - N/A   Clear
12:55 PM 57.0 °F - 39.0 °F 51% 30.27 in 10.0 mi East 10.4 mph - N/A   Clear
1:55 PM 59.0 °F - 36.0 °F 42% 30.25 in 10.0 mi ESE 9.2 mph - N/A   Clear
2:55 PM 61.0 °F - 35.1 °F 38% 30.24 in 10.0 mi ENE 10.4 mph - N/A   Clear
3:55 PM 61.0 °F - 34.0 °F 36% 30.22 in 10.0 mi ENE 10.4 mph - N/A   Clear
4:55 PM 61.0 °F - 35.1 °F 38% 30.21 in 10.0 mi East 8.1 mph - N/A   Clear
5:55 PM 59.0 °F - 35.1 °F 41% 30.20 in 10.0 mi ESE 11.5 mph - N/A   Clear
6:55 PM 55.9 °F - 37.0 °F 49% 30.21 in 10.0 mi ESE 5.8 mph - N/A   Clear
7:55 PM 52.0 °F - 35.1 °F 53% 30.21 in 10.0 mi East 4.6 mph - N/A   Clear
8:55 PM 50.0 °F - 35.1 °F 57% 30.22 in 10.0 mi ESE 5.8 mph - N/A   Clear
9:55 PM 46.9 °F - 35.1 °F 63% 30.22 in 10.0 mi East 5.8 mph - N/A   Clear
10:55 PM 44.1 °F 40.8 °F 35.1 °F 71% 30.21 in 10.0 mi ESE 5.8 mph - N/A   Clear
11:55 PM 43.0 °F 38.2 °F 35.1 °F 74% 30.19 in 10.0 mi ESE 8.1 mph - N/A   Clear